{"data":{"norad_id":45432,"epoch":"2026-09-20T04:20:57.560064Z","epoch_age_seconds":41968,"freshness":"FRESH","line1":"1 45432U 20020J   26263.18122176  .00000071  00000+0  15052-3 0  9992","line2":"2 45432  87.9203 347.0034 0001490 105.8367 254.2929 13.17648504318862","mean_motion":13.17648504,"eccentricity":0.000149,"inclination_deg":87.9203,"raan_deg":347.0034,"arg_perigee_deg":105.8367,"mean_anomaly_deg":254.2929,"bstar":0.00015052,"rev_number":31886,"period_min":109.28559442284,"perigee_km":1192.5869540635,"apogee_km":1194.8433660072,"semimajor_km":7571.8521600353,"source":"CELESTRAK","updated_at":"2026-09-20T09:00:44.553619Z"}}